| time (UTC) | temp F | wind direction | speed MPH | gust MPH | rain 1hr in | rain 24hr in | rain mn in | humidity % | barometer mb |
| 20260505151537 | 58 | 247 | 7.0 | 14.0 | 0.00 | 0.00 | 0.00 | 77 | 1016.3 |
| 20260505124535 | 56 | 256 | 5.0 | 15.0 | 0.00 | 0.00 | 0.00 | 81 | 1015.4 |
| 20260505123031 | 56 | 259 | 5.0 | 11.0 | 0.00 | 0.00 | 0.00 | 80 | 1015.3 |
| 20260505121534 | 57 | 265 | 7.0 | 16.0 | 0.00 | 0.00 | 0.00 | 80 | 1015.2 |
| 20260505114534 | 57 | 258 | 7.0 | 12.0 | 0.00 | 0.00 | 0.00 | 79 | 1015.0 |
| 20260505113035 | 57 | 256 | 7.0 | 15.0 | 0.00 | 0.00 | 0.00 | 79 | 1015.0 |
| 20260505111536 | 58 | 256 | 8.0 | 16.0 | 0.00 | 0.00 | 0.00 | 78 | 1014.9 |
| 20260505101534 | 58 | 257 | 9.0 | 18.0 | 0.00 | 0.00 | 0.00 | 77 | 1014.4 |
| 20260505100044 | 59 | 251 | 6.0 | 14.0 | 0.00 | 0.00 | 0.00 | 76 | 1014.4 |
| 20260505094530 | 59 | 256 | 6.0 | 14.0 | 0.00 | 0.00 | 0.00 | 76 | 1014.2 |
| 20260505093031 | 60 | 253 | 8.0 | 17.0 | 0.00 | 0.00 | 0.00 | 75 | 1014.1 |
| 20260505091535 | 60 | 245 | 7.0 | 18.0 | 0.00 | 0.00 | 0.00 | 74 | 1014.0 |
| 20260505090036 | 61 | 238 | 7.0 | 17.0 | 0.00 | 0.00 | 0.00 | 73 | 1013.8 |
| 20260505084534 | 62 | 244 | 7.0 | 16.0 | 0.00 | 0.00 | 0.00 | 73 | 1013.7 |
| 20260505083110 | 62 | 244 | 8.0 | 15.0 | 0.00 | 0.00 | 0.00 | 73 | 1013.7 |
| 20260505081536 | 63 | 249 | 6.0 | 13.0 | 0.00 | 0.00 | 0.00 | 73 | 1013.5 |
| 20260505080036 | 63 | 252 | 7.0 | 14.0 | 0.00 | 0.00 | 0.00 | 73 | 1013.4 |
| 20260505074533 | 64 | 250 | 9.0 | 17.0 | 0.00 | 0.00 | 0.00 | 72 | 1013.3 |
| 20260505073033 | 64 | 251 | 7.0 | 14.0 | 0.00 | 0.00 | 0.00 | 72 | 1013.2 |
| 20260505071537 | 65 | 251 | 6.0 | 13.0 | 0.00 | 0.00 | 0.00 | 70 | 1013.1 |
| 20260505070034 | 65 | 254 | 8.0 | 17.0 | 0.00 | 0.00 | 0.00 | 69 | 1012.9 |
| 20260505063030 | 66 | 251 | 7.0 | 15.0 | 0.00 | 0.00 | 0.00 | 67 | 1012.6 |
| 20260505060031 | 67 | 248 | 5.0 | 16.0 | 0.00 | 0.00 | 0.00 | 64 | 1012.5 |
| 20260505053033 | 67 | 258 | 4.0 | 14.0 | 0.00 | 0.00 | 0.00 | 62 | 1012.4 |
| 20260505041536 | 69 | 256 | 6.0 | 17.0 | 0.00 | 0.00 | 0.00 | 56 | 1011.6 |
| 20260505040049 | 69 | 249 | 5.0 | 16.0 | 0.00 | 0.00 | 0.00 | 56 | 1011.5 |
| 20260505034534 | 70 | 259 | 4.0 | 11.0 | 0.00 | 0.00 | 0.00 | 54 | 1011.2 |
| 20260505033145 | 70 | 258 | 7.0 | 15.0 | 0.00 | 0.00 | 0.00 | 54 | 1010.9 |
| 20260505024609 | 72 | 251 | 6.0 | 14.0 | 0.00 | 0.00 | 0.00 | 53 | 1010.4 |
| 20260505020036 | 74 | 248 | 4.0 | 15.0 | 0.00 | 0.00 | 0.00 | 50 | 1010.2 |
| 20260505013032 | 74 | 242 | 6.0 | 15.0 | 0.00 | 0.00 | 0.00 | 51 | 1010.0 |
| 20260505011536 | 74 | 249 | 8.0 | 17.0 | 0.00 | 0.00 | 0.00 | 50 | 1010.0 |
| 20260505004535 | 75 | 261 | 9.0 | 20.0 | 0.00 | 0.00 | 0.00 | 49 | 1010.0 |
| 20260505003111 | 75 | 270 | 10.0 | 20.0 | 0.00 | 0.00 | 0.00 | 48 | 1009.9 |
| 20260505001532 | 75 | 271 | 10.0 | 21.0 | 0.00 | 0.00 | 0.00 | 47 | 1009.8 |
| 20260505000034 | 76 | 271 | 10.0 | 24.0 | 0.00 | 0.00 | 0.00 | 47 | 1009.8 |
| 20260504234534 | 76 | 273 | 9.0 | 18.0 | 0.00 | 0.00 | 0.00 | 47 | 1009.7 |
| 20260504233034 | 76 | 277 | 9.0 | 18.0 | 0.00 | 0.00 | 0.00 | 47 | 1009.6 |
| 20260504231535 | 76 | 271 | 10.0 | 22.0 | 0.00 | 0.00 | 0.00 | 47 | 1009.7 |
| 20260504224536 | 76 | 272 | 10.0 | 23.0 | 0.00 | 0.00 | 0.00 | 47 | 1010.0 |
| 20260504223031 | 76 | 274 | 10.0 | 21.0 | 0.00 | 0.00 | 0.00 | 47 | 1010.2 |
| 20260504221536 | 76 | 275 | 11.0 | 20.0 | 0.00 | 0.00 | 0.00 | 48 | 1010.3 |
| 20260504220033 | 76 | 274 | 9.0 | 20.0 | 0.00 | 0.00 | 0.00 | 47 | 1010.3 |
| 20260504213031 | 77 | 271 | 8.0 | 18.0 | 0.00 | 0.00 | 0.00 | 46 | 1010.7 |
| 20260504211532 | 76 | 279 | 10.0 | 20.0 | 0.00 | 0.00 | 0.00 | 47 | 1010.8 |
| 20260504210110 | 76 | 276 | 8.0 | 22.0 | 0.00 | 0.00 | 0.00 | 47 | 1010.9 |
| 20260504204532 | 75 | 269 | 8.0 | 16.0 | 0.00 | 0.00 | 0.00 | 47 | 1011.2 |
| 20260504203033 | 76 | 267 | 8.0 | 17.0 | 0.00 | 0.00 | 0.00 | 46 | 1011.3 |
| 20260504201534 | 76 | 263 | 6.0 | 14.0 | 0.00 | 0.00 | 0.00 | 46 | 1011.4 |
| 20260504200036 | 76 | 279 | 4.0 | 11.0 | 0.00 | 0.00 | 0.00 | 46 | 1011.6 |
| 20260504194534 | 76 | 253 | 4.0 | 16.0 | 0.00 | 0.00 | 0.00 | 46 | 1011.7 |
| 20260504193111 | 75 | 271 | 3.0 | 9.0 | 0.00 | 0.00 | 0.00 | 49 | 1011.9 |
| 20260504191608 | 75 | 260 | 3.0 | 9.0 | 0.00 | 0.00 | 0.00 | 49 | 1012.0 |
| 20260504190031 | 73 | 230 | 3.0 | 10.0 | 0.00 | 0.00 | 0.00 | 51 | 1012.2 |
| 20260504184537 | 72 | 237 | 4.0 | 15.0 | 0.00 | 0.00 | 0.00 | 51 | 1012.2 |
| 20260504183036 | 71 | 235 | 6.0 | 13.0 | 0.00 | 0.00 | 0.00 | 52 | 1012.3 |
| 20260504181535 | 70 | 243 | 8.0 | 16.0 | 0.00 | 0.00 | 0.00 | 54 | 1012.4 |
| 20260504180030 | 69 | 253 | 9.0 | 18.0 | 0.00 | 0.00 | 0.00 | 55 | 1012.5 |
| 20260504174530 | 68 | 266 | 10.0 | 19.0 | 0.00 | 0.00 | 0.00 | 56 | 1012.5 |
| 20260504173031 | 68 | 270 | 12.0 | 22.0 | 0.00 | 0.00 | 0.00 | 56 | 1012.5 |
| 20260504171535 | 68 | 279 | 9.0 | 18.0 | 0.00 | 0.00 | 0.00 | 57 | 1012.5 |